This demonstration page uses our WeatherBlox Daily Observations layout. Learn more.

Left ArrowRight Arrow

39.92423, -83.80882

Hourly Observations for August 8, 2020

Temp ( °F °C ) Dew Point ( °F °C ) Humidity (%) Winds ( mph kmh ) Pressure ( in mb ) Visibility ( mi km ) Precip ( " mm )
12:56 am 00:56 Clear 62 16.7 62 16.7 100 100 ENE 5 7 30.18 1022 10 16 0.86 21.84
1:56 am 01:56 Partly Cloudy 61 16.1 61 16.1 100 100 NNE 3 6 30.18 1022 10 16 0.14 3.56
2:56 am 02:56 Clear 61 16.1 61 16.1 100 100 N N/A 30.17 1022 10 16 N/A
3:56 am 03:56 Clear 59 15 59 15 100 100 N N/A 30.18 1022 10 16 N/A
4:56 am 04:56 Mostly Clear 58 14.4 58 14.4 100 100 N N/A 30.18 1022 10 16 N/A
5:56 am 05:56 Clear 57 13.9 57 13.9 100 100 N N/A 30.17 1022 10 16 N/A
6:56 am 06:56 Sunny 56 13.3 56 13.3 100 100 N N/A 30.19 1023 10 16 0.21 5.33
7:56 am 07:56 Sunny 60 15.6 60 15.6 100 100 N N/A 30.19 1023 10 16 N/A
8:56 am 08:56 Sunny 66 18.9 63 17.2 90 90 N N/A 30.20 1023 10 16 N/A
9:56 am 09:56 Sunny 72 22.2 63 17.2 73 73 ESE 5 7 30.20 1023 10 16 N/A
10:56 am 10:56 Sunny 75 23.9 64 17.8 69 69 N N/A 30.21 1023 10 16 N/A
11:56 am 11:56 Mostly Cloudy 78 25.6 61 16.1 56 56 NNW 6 9 30.22 1023 10 16 N/A
12:56 pm 12:56 Partly Cloudy 78 25.6 60 15.6 54 54 N N/A 30.20 1023 10 16 N/A
1:56 pm 13:56 Sunny 77 25 60 15.6 56 56 N N/A 30.19 1022 10 16 N/A
2:56 pm 14:56 Sunny 80 26.7 62 16.7 54 54 WSW 5 7 30.18 1022 10 16 N/A
3:56 pm 15:56 Sunny 81 27.2 61 16.1 51 51 N N/A 30.16 1021 10 16 N/A
4:56 pm 16:56 Mostly Sunny 82 27.8 61 16.1 49 49 N N/A 30.16 1021 10 16 N/A
5:56 pm 17:56 Sunny 81 27.2 63 17.2 54 54 NNW 5 7 30.15 1021 10 16 N/A
6:56 pm 18:56 Sunny 80 26.7 62 16.7 54 54 NNW 5 7 30.15 1021 10 16 N/A
7:56 pm 19:56 Sunny 76 24.4 64 17.8 67 67 N 5 7 30.16 1021 10 16 N/A
8:56 pm 20:56 Clear 70 21.1 65 18.3 84 84 N N/A 30.16 1021 10 16 N/A
9:56 pm 21:56 Clear 65 18.3 64 17.8 97 97 N N/A 30.16 1022 10 16 N/A
10:56 pm 22:56 Clear 65 18.3 64 17.8 97 97 SSE 6 9 30.16 1021 10 16 N/A
11:56 pm 23:56 Clear 63 17.2 63 17.2 100 100 N N/A 30.16 1021 10 16 N/A

Powered by AerisWeather